This is the latest recevied weather packets stored in our database for station/object HA6IFZ-10. If no packets are shown the sender has not sent any weather packets the latest 10 day(s).
| Time | Temp. | Humidity | Pressure | Rain* | Wind** | Luminosity | Snow |
|---|---|---|---|---|---|---|---|
| 1777214016 | 17.78° C | 22% | 1026.3 hPa | - | - | - | - |
| 1777213116 | 17.78° C | 21% | 1026.2 hPa | - | - | - | - |
| 1777211791 | 18.33° C | 21% | 1026 hPa | - | - | - | - |
| 1777210891 | 16.67° C | 21% | 1026 hPa | - | - | - | - |
| 1777209991 | 17.78° C | 20% | 1025.9 hPa | - | - | - | - |
| 1777209091 | 17.78° C | 20% | 1026 hPa | - | - | - | - |
| 1777208191 | 17.78° C | 19% | 1025.9 hPa | - | - | - | - |
| 1777207291 | 18.89° C | 20% | 1025.8 hPa | - | - | - | - |
| 1777206390 | 17.22° C | 20% | 1025.8 hPa | - | - | - | - |
| 1777205356 | 16.67° C | 23% | 1025.8 hPa | - | - | - | - |
| 1777204456 | 18.33° C | 21% | 1025.5 hPa | - | - | - | - |
| 1777203556 | 17.78° C | 21% | 1025.6 hPa | - | - | - | - |
| 1777202656 | 17.22° C | 22% | 1025.7 hPa | - | - | - | - |
| 1777201740 | 16.11° C | 21% | 1025.4 hPa | - | - | - | - |
| 1777199629 | 17.78° C | 23% | 1025.2 hPa | - | - | - | - |
| 1777198729 | 16.67° C | 22% | 1025.2 hPa | - | - | - | - |
| 1777197829 | 17.22° C | 22% | 1024.8 hPa | - | - | - | - |
| 1777196929 | 17.22° C | 23% | 1024.7 hPa | - | - | - | - |
| 1777196029 | 16.11° C | 23% | 1024.6 hPa | - | - | - | - |
| 1777194807 | 16.67° C | 23% | 1024.2 hPa | - | - | - | - |
| 1777193906 | 16.67° C | 24% | 1024.2 hPa | - | - | - | - |
| 1777193006 | 16.67° C | 26% | 1023.7 hPa | - | - | - | - |
| 1777192106 | 17.22° C | 26% | 1023.5 hPa | - | - | - | - |
| 1777191206 | 16.67° C | 27% | 1023.2 hPa | - | - | - | - |
| 1777190306 | 16.67° C | 26% | 1022.9 hPa | - | - | - | - |
* Rain since midnight (hover to see other rain measurements)
** Current wind speed in m/s (hover to see current wind gust speed)